This demonstration page uses our WeatherBlox Daily Observations layout. Learn more.

Left ArrowRight Arrow

47.50024, -111.30081

Hourly Observations for November 16, 2015

Temp ( °F °C ) Dew Point ( °F °C ) Humidity (%) Winds ( mph kmh ) Pressure ( in mb ) Visibility ( mi km ) Precip ( " mm )
12:53 am 00:53 Clear 37 2.8 21 -6.1 52 52 SSW 12 19 29.47 998 10 16 0.00 0.00
1:53 am 01:53 Partly Cloudy 39 3.9 22 -5.6 50 50 W 8 13 29.49 999 10 16 0.00 0.00
2:53 am 02:53 Cloudy 39 3.9 24 -4.4 55 55 W 7 11 29.52 1000 10 16 0.00 0.00
3:53 am 03:53 Cloudy 39 3.9 26 -3.3 60 60 W 7 11 29.55 1001 10 16 0.00 0.00
4:53 am 04:53 Cloudy with Light Rain 44 6.7 31 -0.6 60 60 WSW 8 13 29.60 1002 10 16 0.00 0.03
5:39 am 05:39 Cloudy with Light Rain 40 4.4 35 1.7 83 83 W 16 26 29.68 1005 7 11 0.02 0.51
5:53 am 05:53 Cloudy with Rain 39 3.9 35 1.7 86 86 W 13 20 29.65 1004 6 10 0.05 1.27
6:13 am 06:13 Cloudy with Rain 37 2.8 33 0.6 86 86 W 17 28 29.74 1007 4 6 0.07 1.78
6:53 am 06:53 Cloudy with Light Rain 35 1.7 32 0 89 89 NW 13 20 29.73 1007 7 11 0.14 3.56
7:24 am 07:24 Cloudy with Light Snow 34 1 32 0 93 93 W 9 15 29.80 1009 8 13 0.00 0.00
7:53 am 07:53 Cloudy with Light Rain 34 1.1 33 0.6 97 97 W 8 13 29.78 1009 10 16 0.06 1.52
8:13 am 08:13 Cloudy with Light Snow 34 1.1 32 0 92 92 W 16 26 29.83 1010 3 4 0.01 0.25
8:20 am 08:20 Cloudy with Light Snow 34 1 30 -1 87 87 WNW 10 17 29.83 1010 1 2 0.00 0.00
8:30 am 08:30 Cloudy with Light Snow 34 1 30 -1 87 87 WNW 12 19 29.83 1010 2 3 0.00 0.00
8:39 am 08:39 Cloudy with Light Snow 33 0.6 31 -0.6 92 92 WNW 12 19 29.83 1010 3 4 0.02 0.51
8:53 am 08:53 Cloudy with Light Snow 33 0.6 32 0 96 96 WNW 7 11 29.83 1010 3 5 0.02 0.51
9:10 am 09:10 Cloudy 34 1 32 0 93 93 WNW 8 13 29.85 1011 9 14 0.00 0.00
9:53 am 09:53 Cloudy 35 1.7 32 0 89 89 N 8 13 29.85 1011 10 16 0.00 0.03
10:53 am 10:53 Mostly Sunny 35 1.7 29 -1.7 78 78 NNW 9 15 29.88 1012 10 16 0.00 0.00
11:53 am 11:53 Mostly Cloudy 37 2.8 28 -2.2 70 70 NNW 8 13 29.90 1013 10 16 0.00 0.00
12:53 pm 12:53 Cloudy 38 3.3 27 -2.8 65 65 WNW 6 9 29.93 1014 10 16 0.00 0.00
1:53 pm 13:53 Cloudy 37 2.8 27 -2.8 67 67 W 6 9 29.96 1015 10 16 0.00 0.00
2:53 pm 14:53 Cloudy 38 3.3 26 -3.3 62 62 W 5 7 29.97 1015 10 16 0.00 0.00
3:53 pm 15:53 Cloudy 37 2.8 27 -2.8 67 67 WNW 3 6 30.00 1016 10 16 0.00 0.00
4:53 pm 16:53 Cloudy 35 1.7 18 -7.8 50 50 W 14 22 30.01 1016 10 16 0.00 0.00
5:53 pm 17:53 Cloudy 33 0.6 18 -7.8 54 54 W 10 17 30.06 1018 10 16 0.00 0.00
6:53 pm 18:53 Partly Cloudy 27 -2.8 16 -8.9 63 63 SW 12 19 30.08 1019 10 16 0.00 0.00
7:53 pm 19:53 Clear 23 -5 14 -10 68 68 SW 9 15 30.09 1019 10 16 0.00 0.00
8:53 pm 20:53 Clear 25 -3.9 15 -9.4 66 66 SW 12 19 30.07 1018 10 16 0.00 0.00
9:53 pm 21:53 Clear 26 -3.3 14 -10 60 60 SW 14 22 30.04 1017 10 16 0.00 0.00
10:53 pm 22:53 Clear 25 -3.9 14 -10 63 63 SSW 13 20 30.01 1016 10 16 0.00 0.00
11:53 pm 23:53 Clear 28 -2.2 14 -10 56 56 SSW 17 28 29.97 1015 10 16 0.00 0.00

Powered by AerisWeather